QPF
0.00 0.00 0.00 0.00 0.00 0.00 0.00 0.01 0.03 0.05 0.05 0.09 0.10 0.15 0.19 0.14 0.14 0.24 0.32 0.28 0.17 0.17 0.16 0.14 0.12 0.10 0.10 0.10 0.09 0.07 0.08 0.06 0.03 0.03 0.03 0.02 0.02 0.03 0.03 0.02 0.01 0.01 0.01 0.01
0.00 0.00 0.00 0.00 0.00 0.00 0.00 0.01 0.03 0.04 0.06 0.12 0.15 0.16 0.19 0.19 0.19 0.24 0.29 0.25 0.22 0.18 0.14 0.11 0.07 0.05 0.05 0.05 0.04 0.03 0.03 0.02 0.02 0.02 0.01 0.02 0.02 0.03 0.04 0.03 0.01 0.00 0.00 0.00
0.00 0.00 0.00 0.00 0.00 0.00 0.01 0.01 0.02 0.04 0.10 0.16 0.14 0.19 0.16 0.16 0.20 0.23 0.23 0.34 0.28 0.19 0.13 0.08 0.06 0.04 0.02 0.02 0.02 0.02 0.02 0.01 0.01 0.01 0.01 0.01 0.01 0.01 0.02 0.01 0.01 0.00 0.00 0.00
0.00 0.00 0.00 0.00 0.00 0.00 0.00 0.01 0.01 0.04 0.06 0.11 0.14 0.22 0.15 0.13 0.18 0.25 0.26 0.25 0.21 0.14 0.11 0.08 0.05 0.03 0.02 0.02 0.02 0.02 0.02 0.01 0.01 0.01 0.01 0.00 0.00 0.00 0.00 0.00 0.01 0.01 0.01 0.01
0.00 0.00 0.00 0.00 0.00 0.00 0.00 0.01 0.02 0.05 0.07 0.11 0.12 0.15 0.16 0.11 0.15 0.26 0.29 0.18 0.11 0.07 0.08 0.07 0.05 0.03 0.02 0.02 0.02 0.02 0.01 0.01 0.01 0.01 0.01 0.01 0.00 0.00 0.00 0.00 0.01 0.00 0.00 0.00
0.00 0.00 0.01 0.00 0.00 0.00 0.00 0.01 0.03 0.04 0.07 0.11 0.11 0.11 0.09 0.05 0.06 0.15 0.20 0.10 0.07 0.05 0.05 0.04 0.04 0.04 0.03 0.02 0.02 0.01 0.01 0.01 0.01 0.01 0.01 0.01 0.00 0.00 0.00 0.00 0.00 0.00 0.00 0.00
0.01 0.01 0.01 0.01 0.00 0.00 0.01 0.02 0.03 0.05 0.11 0.07 0.05 0.08 0.05 0.01 0.01 0.04 0.09 0.11 0.10 0.04 0.05 0.04 0.04 0.04 0.04 0.02 0.01 0.01 0.01 0.01 0.01 0.00 0.00 0.00 0.00 0.00 0.00 0.00 0.00 0.00 0.00 0.00
0.01 0.02 0.02 0.01 0.01 0.01 0.01 0.02 0.04 0.07 0.12 0.10 0.08 0.09 0.06 0.02 0.02 0.02 0.07 0.07 0.04 0.04 0.05 0.04 0.06 0.04 0.02 0.01 0.01 0.01 0.00 0.00 0.00 0.00 0.00 0.00 0.00 0.00 0.00 0.00 0.00 0.00 0.00 0.00
0.01 0.01 0.01 0.01 0.01 0.01 0.01 0.02 0.03 0.06 0.15 0.25 0.17 0.11 0.04 0.03 0.03 0.02 0.04 0.04 0.02 0.07 0.06 0.03 0.04 0.02 0.01 0.00 0.00 0.00 0.00 0.00 0.00 0.00 0.00 0.00 0.00 0.00 0.00 0.00 0.00 0.00 0.00 0.00
0.01 0.00 0.01 0.01 0.02 0.02 0.02 0.02 0.02 0.05 0.12 0.18 0.20 0.13 0.05 0.03 0.02 0.02 0.05 0.05 0.02 0.03 0.03 0.02 0.01 0.01 0.00 0.00 0.00 0.00 0.00 0.00 0.00 0.00 0.00 0.00 0.00 0.00 0.00 0.00 0.00 0.00 0.00 0.00
0.00 0.00 0.00 0.01 0.01 0.02 0.02 0.02 0.02 0.03 0.05 0.07 0.12 0.08 0.02 0.01 0.01 0.02 0.06 0.07 0.03 0.02 0.01 0.01 0.00 0.00 0.00 0.00 0.00 0.00 0.00 0.00 0.00 0.00 0.00 0.00 0.00 0.00 0.00 0.00 0.00 0.00 0.00 0.00
0.01 0.00 0.00 0.02 0.02 0.02 0.01 0.02 0.02 0.03 0.03 0.05 0.05 0.03 0.01 0.01 0.01 0.01 0.04 0.06 0.03 0.01 0.00 0.00 0.00 0.00 0.00 0.00 0.00 0.00 0.00 0.00 0.00 0.00 0.00 0.00 0.00 0.00 0.00 0.00 0.00 0.00 0.00 0.00
0.00 0.00 0.01 0.02 0.02 0.01 0.01 0.01 0.02 0.02 0.02 0.05 0.04 0.02 0.01 0.01 0.01 0.01 0.02 0.02 0.01 0.01 0.00 0.00 0.00 0.00 0.00 0.00 0.00 0.00 0.00 0.00 0.00 0.00 0.00 0.00 0.00 0.00 0.00 0.00 0.00 0.00 0.00 0.00
0.00 0.01 0.01 0.04 0.05 0.01 0.00 0.01 0.01 0.02 0.03 0.05 0.03 0.02 0.01 0.01 0.03 0.02 0.01 0.01 0.01 0.00 0.00 0.00 0.00 0.00 0.00 0.00 0.00 0.00 0.00 0.00 0.00 0.00 0.00 0.00 0.00 0.00 0.00 0.00 0.00 0.00 0.00 0.00
0.00 0.01 0.01 0.04 0.04 0.03 0.01 0.00 0.01 0.01 0.02 0.02 0.01 0.01 0.01 0.01 0.03 0.02 0.01 0.01 0.00 0.00 0.00 0.00 0.00 0.00 0.00 0.00 0.00 0.00 0.00 0.00 0.00 0.00 0.00 0.00 0.00 0.00 0.00 0.00 0.00 0.00 0.00 0.00
0.01 0.01 0.01 0.04 0.05 0.06 0.04 0.01 0.01 0.01 0.01 0.03 0.02 0.01 0.01 0.01 0.02 0.01 0.00 0.00 0.01 0.01 0.00 0.00 0.00 0.00 0.00 0.00 0.00 0.00 0.00 0.00 0.00 0.00 0.00 0.00 0.00 0.00 0.00 0.00 0.00 0.00 0.00 0.00
0.02 0.02 0.02 0.02 0.04 0.05 0.04 0.03 0.02 0.01 0.01 0.03 0.02 0.01 0.01 0.01 0.01 0.00 0.00 0.00 0.00 0.01 0.01 0.00 0.00 0.00 0.00 0.00 0.00 0.00 0.00 0.00 0.00 0.00 0.00 0.00 0.00 0.00 0.00 0.00 0.00 0.00 0.00 0.00
0.02 0.04 0.05 0.03 0.03 0.04 0.04 0.04 0.04 0.03 0.03 0.02 0.01 0.01 0.00 0.00 0.01 0.00 0.00 0.00 0.00 0.00 0.00 0.00 0.00 0.00 0.00 0.00 0.00 0.00 0.00 0.00 0.00 0.00 0.00 0.00 0.00 0.00 0.00 0.00 0.00 0.00 0.00 0.00
0.02 0.02 0.03 0.03 0.03 0.04 0.05 0.05 0.05 0.05 0.04 0.02 0.01 0.01 0.01 0.01 0.01 0.00 0.00 0.00 0.00 0.00 0.00 0.00 0.01 0.00 0.00 0.00 0.00 0.00 0.00 0.00 0.00 0.00 0.00 0.00 0.00 0.00 0.00 0.00 0.00 0.00 0.00 0.01
0.02 0.03 0.04 0.04 0.04 0.04 0.05 0.06 0.05 0.04 0.05 0.03 0.03 0.02 0.01 0.01 0.01 0.01 0.00 0.00 0.00 0.00 0.00 0.00 0.00 0.00 0.00 0.00 0.00 0.00 0.00 0.00 0.00 0.00 0.00 0.00 0.00 0.00 0.00 0.00 0.00 0.00 0.00 0.00
0.09 0.07 0.07 0.06 0.05 0.05 0.09 0.06 0.03 0.05 0.05 0.05 0.05 0.02 0.01 0.01 0.01 0.01 0.01 0.01 0.01 0.00 0.00 0.00 0.00 0.00 0.00 0.00 0.00 0.00 0.00 0.00 0.00 0.00 0.00 0.00 0.00 0.00 0.00 0.00 0.00 0.00 0.00 0.00
0.13 0.14 0.12 0.10 0.10 0.10 0.11 0.08 0.09 0.11 0.09 0.06 0.04 0.02 0.01 0.01 0.01 0.01 0.01 0.01 0.01 0.00 0.00 0.00 0.00 0.00 0.00 0.00 0.00 0.00 0.00 0.00 0.00 0.00 0.00 0.00 0.00 0.00 0.00 0.00 0.00 0.00 0.00 0.00
0.11 0.14 0.17 0.14 0.10 0.10 0.13 0.09 0.09 0.11 0.08 0.06 0.04 0.03 0.02 0.01 0.01 0.01 0.01 0.01 0.00 0.00 0.01 0.00 0.00 0.00 0.00 0.00 0.00 0.00 0.00 0.00 0.00 0.00 0.00 0.00 0.00 0.00 0.00 0.00 0.00 0.00 0.00 0.00
0.13 0.11 0.15 0.13 0.09 0.08 0.09 0.12 0.10 0.07 0.08 0.06 0.03 0.03 0.03 0.02 0.01 0.01 0.01 0.01 0.01 0.01 0.01 0.01 0.00 0.00 0.00 0.00 0.00 0.00 0.00 0.00 0.00 0.00 0.00 0.00 0.00 0.00 0.00 0.00 0.00 0.00 0.00 0.01
0.11 0.09 0.13 0.13 0.12 0.12 0.11 0.14 0.13 0.08 0.05 0.04 0.03 0.02 0.02 0.02 0.02 0.02 0.01 0.01 0.02 0.02 0.01 0.01 0.01 0.01 0.01 0.01 0.00 0.00 0.00 0.00 0.00 0.00 0.00 0.00 0.00 0.00 0.00 0.00 0.00 0.00 0.00 0.01
0.16 0.11 0.09 0.11 0.14 0.13 0.09 0.10 0.08 0.06 0.05 0.04 0.03 0.02 0.01 0.01 0.01 0.01 0.01 0.01 0.01 0.01 0.01 0.01 0.01 0.01 0.01 0.00 0.00 0.00 0.01 0.01 0.01 0.00 0.00 0.00 0.00 0.00 0.00 0.00 0.00 0.00 0.00 0.01
MSLP
1011.65 1012.35 1012.94 1013.45 1013.89 1014.33 1014.77 1015.25 1015.73 1016.20 1016.59 1016.87 1017.00 1016.98 1016.81 1016.56 1016.28 1016.04 1015.89 1015.86 1015.94 1016.12 1016.33 1016.53 1016.67 1016.72 1016.68 1016.56 1016.40 1016.26 1016.19 1016.20 1016.30 1016.47 1016.69 1016.89 1017.04 1017.10 1017.06 1016.94 1016.77 1016.59 1016.44 1016.35
1012.06 1012.68 1013.19 1013.64 1014.08 1014.56 1015.11 1015.72 1016.35 1016.94 1017.42 1017.71 1017.79 1017.65 1017.34 1016.93 1016.52 1016.19 1016.01 1016.00 1016.15 1016.41 1016.71 1016.97 1017.13 1017.16 1017.05 1016.86 1016.63 1016.44 1016.35 1016.38 1016.55 1016.81 1017.11 1017.39 1017.59 1017.65 1017.58 1017.40 1017.15 1016.89 1016.68 1016.56
1012.06 1012.59 1013.03 1013.46 1013.94 1014.52 1015.23 1016.04 1016.87 1017.63 1018.20 1018.52 1018.54 1018.28 1017.79 1017.19 1016.59 1016.12 1015.85 1015.81 1015.99 1016.31 1016.69 1017.03 1017.24 1017.30 1017.20 1016.99 1016.75 1016.55 1016.48 1016.56 1016.80 1017.14 1017.52 1017.86 1018.09 1018.16 1018.07 1017.84 1017.53 1017.21 1016.95 1016.80
1011.71 1012.13 1012.51 1012.94 1013.50 1014.24 1015.17 1016.22 1017.29 1018.25 1018.95 1019.31 1019.28 1018.88 1018.20 1017.37 1016.55 1015.88 1015.47 1015.35 1015.51 1015.86 1016.30 1016.72 1017.02 1017.15 1017.11 1016.95 1016.75 1016.60 1016.57 1016.70 1016.99 1017.39 1017.83 1018.22 1018.48 1018.57 1018.47 1018.21 1017.87 1017.51 1017.22 1017.04
1011.16 1011.46 1011.78 1012.23 1012.90 1013.83 1014.99 1016.31 1017.64 1018.80 1019.65 1020.06 1019.98 1019.46 1018.58 1017.51 1016.45 1015.56 1014.96 1014.72 1014.81 1015.16 1015.66 1016.16 1016.56 1016.79 1016.86 1016.79 1016.67 1016.58 1016.60 1016.78 1017.11 1017.55 1018.02 1018.44 1018.72 1018.82 1018.73 1018.49 1018.14 1017.78 1017.47 1017.27
1010.65 1010.81 1011.06 1011.53 1012.30 1013.40 1014.78 1016.34 1017.90 1019.26 1020.23 1020.69 1020.58 1019.94 1018.89 1017.61 1016.32 1015.21 1014.43 1014.04 1014.06 1014.39 1014.91 1015.49 1015.99 1016.35 1016.54 1016.58 1016.55 1016.53 1016.60 1016.81 1017.15 1017.59 1018.06 1018.48 1018.78 1018.91 1018.85 1018.64 1018.33 1017.99 1017.70 1017.50
1010.36 1010.37 1010.55 1011.02 1011.85 1013.07 1014.62 1016.35 1018.07 1019.56 1020.62 1021.10 1020.97 1020.24 1019.06 1017.62 1016.15 1014.87 1013.94 1013.44 1013.37 1013.68 1014.22 1014.86 1015.46 1015.94 1016.24 1016.39 1016.45 1016.49 1016.59 1016.79 1017.11 1017.52 1017.97 1018.38 1018.68 1018.84 1018.83 1018.68 1018.43 1018.15 1017.90 1017.71
1010.37 1010.25 1010.35 1010.79 1011.64 1012.91 1014.52 1016.32 1018.10 1019.63 1020.71 1021.20 1021.03 1020.26 1019.01 1017.49 1015.93 1014.55 1013.54 1012.97 1012.86 1013.14 1013.71 1014.40 1015.08 1015.64 1016.05 1016.29 1016.41 1016.49 1016.59 1016.77 1017.04 1017.39 1017.78 1018.16 1018.46 1018.64 1018.68 1018.61 1018.45 1018.25 1018.05 1017.91
1010.66 1010.44 1010.47 1010.87 1011.68 1012.91 1014.47 1016.22 1017.93 1019.40 1020.42 1020.87 1020.67 1019.89 1018.65 1017.14 1015.59 1014.23 1013.22 1012.65 1012.54 1012.84 1013.42 1014.15 1014.88 1015.51 1015.98 1016.28 1016.45 1016.54 1016.62 1016.75 1016.96 1017.23 1017.56 1017.88 1018.16 1018.36 1018.46 1018.46 1018.39 1018.28 1018.15 1018.05
1011.05 1010.81 1010.81 1011.16 1011.89 1013.01 1014.42 1015.99 1017.52 1018.82 1019.71 1020.06 1019.84 1019.09 1017.92 1016.52 1015.10 1013.86 1012.95 1012.46 1012.41 1012.74 1013.35 1014.09 1014.85 1015.51 1016.02 1016.35 1016.54 1016.63 1016.68 1016.75 1016.89 1017.08 1017.33 1017.60 1017.85 1018.06 1018.20 1018.26 1018.27 1018.23 1018.18 1018.12
1011.37 1011.18 1011.21 1011.53 1012.16 1013.11 1014.29 1015.59 1016.84 1017.88 1018.57 1018.80 1018.56 1017.86 1016.84 1015.63 1014.43 1013.40 1012.68 1012.34 1012.39 1012.78 1013.41 1014.17 1014.93 1015.59 1016.10 1016.44 1016.63 1016.71 1016.73 1016.76 1016.83 1016.96 1017.14 1017.35 1017.56 1017.76 1017.92 1018.02 1018.08 1018.10 1018.10 1018.08
1011.45 1011.40 1011.51 1011.84 1012.39 1013.15 1014.06 1015.04 1015.95 1016.68 1017.12 1017.21 1016.93 1016.32 1015.48 1014.52 1013.60 1012.86 1012.39 1012.24 1012.42 1012.87 1013.53 1014.27 1015.00 1015.64 1016.13 1016.46 1016.65 1016.72 1016.74 1016.75 1016.78 1016.86 1016.98 1017.14 1017.32 1017.49 1017.64 1017.76 1017.84 1017.89 1017.91 1017.91
1011.25 1011.40 1011.66 1012.03 1012.52 1013.10 1013.75 1014.39 1014.94 1015.35 1015.53 1015.47 1015.16 1014.64 1013.98 1013.30 1012.69 1012.25 1012.04 1012.10 1012.42 1012.94 1013.60 1014.31 1014.99 1015.58 1016.04 1016.36 1016.54 1016.63 1016.67 1016.68 1016.71 1016.76 1016.86 1016.98 1017.11 1017.25 1017.37 1017.47 1017.55 1017.60 1017.62 1017.62
1010.84 1011.23 1011.67 1012.11 1012.57 1013.01 1013.41 1013.74 1013.96 1014.05 1013.99 1013.77 1013.43 1013.00 1012.53 1012.11 1011.79 1011.64 1011.68 1011.93 1012.36 1012.93 1013.57 1014.23 1014.85 1015.38 1015.80 1016.09 1016.29 1016.41 1016.48 1016.52 1016.58 1016.64 1016.73 1016.83 1016.93 1017.03 1017.11 1017.18 1017.22 1017.24 1017.24 1017.22
1010.39 1011.02 1011.62 1012.16 1012.61 1012.93 1013.13 1013.20 1013.13 1012.95 1012.67 1012.32 1011.95 1011.58 1011.27 1011.07 1011.00 1011.09 1011.34 1011.74 1012.24 1012.83 1013.44 1014.03 1014.57 1015.03 1015.40 1015.68 1015.89 1016.05 1016.17 1016.28 1016.38 1016.48 1016.58 1016.67 1016.75 1016.81 1016.85 1016.87 1016.87 1016.85 1016.81 1016.77
1010.11 1010.92 1011.66 1012.27 1012.71 1012.95 1012.99 1012.85 1012.56 1012.16 1011.70 1011.25 1010.83 1010.52 1010.33 1010.29 1010.40 1010.67 1011.06 1011.55 1012.09 1012.66 1013.22 1013.73 1014.18 1014.57 1014.89 1015.16 1015.39 1015.59 1015.77 1015.95 1016.11 1016.26 1016.38 1016.49 1016.55 1016.59 1016.59 1016.57 1016.52 1016.46 1016.38 1016.31
1010.14 1011.04 1011.85 1012.49 1012.91 1013.08 1013.01 1012.72 1012.26 1011.71 1011.12 1010.58 1010.14 1009.84 1009.72 1009.78 1010.01 1010.38 1010.85 1011.38 1011.93 1012.46 1012.95 1013.38 1013.75 1014.07 1014.35 1014.61 1014.85 1015.10 1015.33 1015.57 1015.79 1015.99 1016.15 1016.26 1016.33 1016.35 1016.32 1016.26 1016.18 1016.08 1015.98 1015.88
1010.50 1011.39 1012.18 1012.79 1013.17 1013.28 1013.13 1012.74 1012.19 1011.53 1010.87 1010.27 1009.80 1009.51 1009.41 1009.52 1009.79 1010.20 1010.69 1011.22 1011.75 1012.23 1012.66 1013.02 1013.33 1013.60 1013.85 1014.09 1014.35 1014.62 1014.90 1015.18 1015.45 1015.68 1015.87 1016.00 1016.07 1016.08 1016.04 1015.96 1015.85 1015.74 1015.62 1015.51
1011.09 1011.87 1012.56 1013.09 1013.39 1013.44 1013.23 1012.79 1012.19 1011.49 1010.80 1010.17 1009.68 1009.38 1009.28 1009.39 1009.66 1010.07 1010.55 1011.05 1011.54 1011.99 1012.37 1012.69 1012.96 1013.20 1013.43 1013.67 1013.93 1014.21 1014.52 1014.82 1015.11 1015.36 1015.56 1015.70 1015.77 1015.78 1015.74 1015.65 1015.54 1015.41 1015.29 1015.17
1011.67 1012.27 1012.81 1013.21 1013.42 1013.40 1013.16 1012.71 1012.11 1011.42 1010.73 1010.11 1009.62 1009.31 1009.19 1009.27 1009.52 1009.89 1010.34 1010.81 1011.28 1011.70 1012.06 1012.37 1012.63 1012.87 1013.10 1013.34 1013.61 1013.90 1014.20 1014.51 1014.80 1015.05 1015.25 1015.38 1015.45 1015.46 1015.41 1015.32 1015.21 1015.09 1014.96 1014.85
1012.01 1012.41 1012.76 1013.01 1013.12 1013.06 1012.81 1012.38 1011.82 1011.19 1010.54 1009.95 1009.47 1009.15 1009.00 1009.05 1009.25 1009.58 1009.99 1010.45 1010.90 1011.33 1011.71 1012.04 1012.32 1012.58 1012.84 1013.09 1013.36 1013.65 1013.94 1014.23 1014.50 1014.74 1014.92 1015.05 1015.11 1015.11 1015.06 1014.97 1014.86 1014.73 1014.61 1014.50
1011.94 1012.14 1012.31 1012.43 1012.45 1012.36 1012.12 1011.76 1011.27 1010.72 1010.15 1009.61 1009.15 1008.83 1008.66 1008.66 1008.82 1009.11 1009.50 1009.94 1010.40 1010.85 1011.27 1011.65 1011.99 1012.30 1012.59 1012.87 1013.15 1013.43 1013.70 1013.97 1014.21 1014.42 1014.58 1014.69 1014.74 1014.73 1014.68 1014.58 1014.47 1014.34 1014.21 1014.10
1011.41 1011.43 1011.45 1011.47 1011.44 1011.35 1011.16 1010.87 1010.49 1010.04 1009.56 1009.08 1008.66 1008.34 1008.16 1008.12 1008.24 1008.49 1008.85 1009.29 1009.78 1010.27 1010.75 1011.20 1011.60 1011.97 1012.30 1012.61 1012.90 1013.17 1013.43 1013.68 1013.90 1014.08 1014.22 1014.31 1014.35 1014.33 1014.27 1014.17 1014.04 1013.90 1013.76 1013.63
1010.50 1010.39 1010.32 1010.27 1010.23 1010.17 1010.05 1009.86 1009.60 1009.26 1008.87 1008.46 1008.08 1007.77 1007.56 1007.50 1007.57 1007.79 1008.13 1008.57 1009.07 1009.61 1010.15 1010.66 1011.13 1011.55 1011.93 1012.27 1012.57 1012.84 1013.08 1013.31 1013.51 1013.68 1013.81 1013.89 1013.93 1013.91 1013.84 1013.73 1013.59 1013.43 1013.27 1013.11
1009.39 1009.22 1009.11 1009.04 1009.02 1009.01 1008.98 1008.90 1008.74 1008.51 1008.21 1007.87 1007.53 1007.22 1007.00 1006.90 1006.93 1007.12 1007.43 1007.86 1008.38 1008.94 1009.52 1010.07 1010.59 1011.05 1011.46 1011.81 1012.11 1012.38 1012.61 1012.83 1013.02 1013.19 1013.32 1013.42 1013.46 1013.46 1013.40 1013.28 1013.13 1012.95 1012.76 1012.57
1008.35 1008.16 1008.04 1008.00 1008.02 1008.08 1008.14 1008.15 1008.09 1007.95 1007.73 1007.45 1007.13 1006.83 1006.60 1006.46 1006.46 1006.60 1006.88 1007.29 1007.79 1008.35 1008.94 1009.50 1010.03 1010.49 1010.90 1011.24 1011.53 1011.78 1012.01 1012.22 1012.41 1012.59 1012.75 1012.87 1012.95 1012.97 1012.92 1012.81 1012.66 1012.46 1012.24 1012.03
Thickness
5790 5770 5757 5764 5768 5766 5761 5750 5742 5745 5754 5745 5736 5734 5736 5740 5737 5733 5732 5732 5732 5732 5737 5742 5745 5745 5742 5741 5741 5740 5737 5735 5734 5730 5726 5722 5719 5718 5717 5716 5714 5713 5712 5710
5768 5762 5782 5788 5784 5775 5765 5748 5739 5742 5751 5741 5729 5727 5732 5734 5731 5731 5730 5727 5728 5730 5732 5735 5737 5739 5738 5737 5736 5734 5732 5731 5729 5727 5724 5721 5718 5715 5712 5711 5709 5708 5707 5705
5761 5777 5795 5789 5779 5771 5763 5752 5745 5738 5740 5738 5729 5718 5721 5727 5730 5731 5731 5730 5732 5733 5731 5732 5733 5734 5735 5734 5733 5732 5729 5727 5726 5724 5721 5718 5714 5710 5707 5704 5703 5702 5702 5700
5774 5791 5793 5785 5778 5773 5752 5766 5760 5746 5727 5712 5719 5698 5711 5718 5722 5726 5728 5729 5731 5733 5734 5732 5732 5731 5732 5732 5732 5729 5727 5725 5723 5721 5717 5712 5706 5702 5700 5699 5698 5698 5697 5695
5774 5788 5786 5780 5781 5778 5761 5766 5755 5741 5723 5709 5709 5698 5702 5715 5715 5721 5727 5731 5732 5733 5733 5731 5732 5732 5733 5732 5730 5727 5725 5722 5720 5718 5714 5708 5703 5700 5698 5696 5694 5692 5691 5689
5785 5798 5795 5790 5791 5785 5770 5752 5738 5725 5713 5695 5701 5696 5699 5710 5720 5725 5729 5733 5734 5733 5733 5732 5734 5733 5731 5730 5728 5725 5722 5719 5717 5714 5711 5706 5701 5698 5694 5690 5688 5685 5684 5682
5769 5783 5794 5796 5775 5771 5763 5734 5710 5700 5688 5690 5705 5701 5706 5729 5737 5736 5735 5735 5737 5736 5734 5733 5732 5731 5728 5727 5725 5723 5719 5716 5714 5712 5708 5705 5700 5696 5691 5687 5684 5681 5678 5675
5747 5750 5780 5790 5778 5763 5757 5742 5712 5694 5685 5690 5703 5700 5721 5745 5748 5747 5743 5740 5739 5738 5736 5735 5734 5732 5730 5727 5725 5721 5718 5715 5713 5710 5706 5703 5699 5694 5690 5686 5682 5678 5675 5672
5746 5750 5785 5794 5794 5779 5756 5741 5737 5708 5695 5687 5694 5710 5732 5748 5745 5744 5742 5740 5738 5739 5737 5736 5735 5733 5731 5728 5725 5722 5718 5715 5712 5709 5705 5700 5697 5692 5688 5684 5680 5676 5673 5670
5762 5750 5772 5787 5787 5779 5769 5753 5727 5707 5689 5685 5694 5703 5713 5732 5736 5740 5741 5740 5741 5740 5739 5737 5736 5734 5732 5729 5726 5723 5719 5715 5711 5707 5703 5700 5695 5691 5687 5682 5677 5673 5670 5666
5768 5749 5756 5766 5761 5757 5757 5748 5729 5711 5706 5690 5684 5703 5744 5744 5745 5743 5745 5746 5744 5743 5741 5738 5736 5735 5732 5729 5725 5721 5717 5713 5709 5706 5702 5698 5693 5689 5685 5680 5675 5671 5667 5663
5768 5746 5738 5752 5767 5772 5764 5752 5734 5714 5707 5703 5696 5712 5764 5758 5755 5752 5749 5750 5749 5747 5744 5740 5737 5733 5729 5726 5723 5720 5717 5713 5709 5705 5701 5697 5692 5687 5682 5678 5674 5669 5664 5660
5766 5741 5723 5726 5739 5755 5753 5754 5747 5730 5715 5705 5699 5721 5763 5760 5756 5755 5753 5751 5749 5745 5741 5737 5734 5731 5728 5725 5722 5719 5716 5712 5709 5704 5699 5694 5690 5685 5681 5676 5672 5667 5662 5657
5771 5740 5726 5719 5727 5742 5743 5750 5751 5734 5713 5712 5720 5733 5750 5753 5752 5752 5752 5750 5747 5744 5740 5735 5731 5729 5727 5725 5722 5719 5715 5711 5707 5703 5697 5692 5688 5684 5679 5675 5669 5664 5659 5654
5762 5739 5742 5742 5749 5747 5746 5750 5752 5744 5735 5726 5735 5740 5751 5757 5759 5757 5755 5750 5746 5741 5737 5735 5731 5728 5725 5723 5720 5717 5713 5710 5706 5700 5695 5691 5687 5683 5678 5672 5667 5662 5656 5651
5753 5740 5738 5738 5748 5747 5745 5753 5755 5753 5752 5747 5746 5745 5763 5766 5763 5758 5754 5752 5746 5742 5739 5736 5733 5729 5726 5723 5720 5716 5712 5708 5704 5698 5694 5690 5685 5680 5675 5670 5664 5658 5653 5647
5741 5734 5724 5721 5737 5737 5729 5748 5753 5754 5758 5753 5743 5752 5763 5758 5758 5757 5756 5754 5750 5746 5742 5738 5734 5732 5729 5725 5721 5715 5711 5707 5701 5696 5692 5687 5682 5677 5672 5667 5661 5655 5650 5644
5737 5726 5715 5713 5719 5707 5733 5760 5761 5756 5758 5761 5762 5765 5767 5768 5767 5765 5763 5758 5753 5750 5745 5741 5737 5732 5729 5725 5720 5715 5710 5704 5699 5693 5689 5684 5679 5673 5668 5662 5657 5651 5646 5640
5743 5729 5714 5704 5703 5713 5738 5752 5752 5745 5743 5758 5760 5766 5766 5766 5759 5755 5762 5762 5759 5754 5750 5745 5740 5734 5728 5722 5718 5712 5706 5701 5695 5690 5685 5681 5676 5670 5664 5658 5653 5648 5642 5636
5735 5728 5714 5704 5702 5701 5727 5750 5759 5749 5734 5755 5757 5758 5759 5756 5737 5744 5760 5760 5757 5754 5750 5744 5738 5731 5725 5720 5715 5708 5702 5696 5692 5688 5683 5678 5673 5666 5660 5655 5650 5645 5639 5634
5712 5710 5706 5700 5698 5711 5736 5749 5752 5726 5732 5749 5752 5753 5754 5752 5753 5759 5760 5757 5754 5751 5746 5741 5735 5728 5723 5718 5712 5704 5698 5693 5691 5686 5680 5675 5669 5664 5658 5653 5647 5642 5636 5630
5701 5697 5695 5693 5692 5705 5738 5740 5734 5736 5748 5749 5752 5755 5754 5757 5758 5757 5756 5752 5748 5744 5740 5736 5729 5723 5719 5715 5708 5700 5695 5693 5688 5682 5676 5671 5665 5661 5656 5649 5643 5638 5632 5626
5703 5706 5703 5701 5707 5726 5734 5735 5742 5744 5746 5749 5751 5752 5752 5750 5750 5751 5749 5746 5744 5740 5736 5732 5726 5719 5714 5710 5705 5698 5694 5690 5683 5677 5671 5666 5661 5656 5651 5645 5639 5634 5628 5621
5706 5711 5705 5704 5714 5724 5731 5736 5741 5744 5746 5751 5751 5750 5747 5745 5746 5745 5743 5740 5737 5735 5731 5727 5720 5713 5708 5705 5701 5697 5692 5686 5679 5672 5667 5661 5656 5651 5647 5642 5636 5629 5623 5617
5707 5706 5701 5701 5712 5719 5728 5735 5739 5743 5745 5747 5747 5747 5746 5744 5743 5742 5739 5735 5733 5730 5726 5722 5716 5710 5706 5701 5697 5693 5687 5681 5673 5667 5662 5657 5651 5647 5642 5637 5632 5627 5623 5617
5710 5708 5703 5704 5715 5715 5724 5736 5739 5737 5737 5739 5738 5739 5743 5744 5741 5740 5737 5733 5729 5724 5720 5715 5710 5706 5701 5696 5692 5688 5683 5677 5669 5662 5657 5652 5646 5642 5637 5632 5628 5626 5621 5616